Regional Weather Roundup
Issued by NWS Northern Indiana

Home | Current Version | Previous Version | Text Only | Print | Product List | Glossary On
Versions: 1 2 3 4 5 6 7 8 9 10 11 12 13 14 15 16 17 18 19 20 21 22 23 24 25 26 27 28 29 30 31 32 33 34 35 36 37 38 39 40 41 42 43 44 45 46 47 48 49 50
000
ASUS43 KIWX 231310
RWRIWX

KIWX WEATHER ROUNDUP
NATIONAL WEATHER SERVICE NORTHERN INDIANA
900 AM EDT TUE MAY 23 2017

NOTE: "FAIR" INDICATES FEW OR NO CLOUDS BELOW 12,000 FEET WITH NO
SIGNIFICANT WEATHER AND/OR OBSTRUCTIONS TO VISIBILITY.

* THESE STATIONS ARE NOT UNDER NWS QUALITY CONTROL. THEY ALSO MAY NOT
  REPORT WEATHER SUCH AS PRECIPITATION OR FOG.

INZ001>027-231400-
NORTHERN INDIANA

CITY           SKY/WX    TMP DP  RH WIND       PRES   REMARKS
GARY*          CLOUDY    63  52  67 SW5       29.84S
VALPARAISO     CLOUDY    61  56  83 S6        29.84S
MICHIGAN CITY* CLOUDY    59  54  82 S3        29.84S
LAPORTE*       CLOUDY    58  54  86 S6        29.85S
KNOX*          CLOUDY    59  46  63 SE6       29.84F
SOUTH BEND     LGT RAIN  58  54  86 S7        29.86S
ELKHART*       LGT RAIN  61  52  72 S7        29.85S
GOSHEN         CLOUDY    61  51  70 S6        29.86S
MONTICELLO*    PTSUNNY   60  52  76 SE3       29.85S
LOGANSPORT*    CLOUDY    59  52  77 S3        29.87F
ROCHESTER*     CLOUDY    63  52  67 S3        29.87S
WARSAW*        PTSUNNY   61  50  67 CALM      29.87S
ANGOLA*        SUNNY     61  52  72 S5        29.87S
FORT WAYNE     PTSUNNY   61  50  67 CALM      29.88S
HUNTINGTON*    CLOUDY    60  51  73 CALM      29.87F
PERU/GRISSOM   CLOUDY    60  53  75 S5        29.86S

$$
INZ028>050-231400-
CENTRAL INDIANA

CITY           SKY/WX    TMP DP  RH WIND       PRES   REMARKS
LAFAYETTE      CLOUDY    60  53  77 SE5       29.85F
KOKOMO*        CLOUDY    60  52  74 SW3       29.88S
MUNCIE*        CLOUDY    64  46  52 S9        29.87F
INDIANAPOLIS   CLOUDY    60  51  72 E3        29.85F

$$
MIZ043>046-050>051-056>058-064>065-071>073-077>080-231400-
SOUTHWEST LOWER MICHIGAN

CITY           SKY/WX    TMP DP  RH WIND       PRES   REMARKS
BATTLE CREEK   CLOUDY    60  53  77 S8        29.86F
BENTON HARBOR  CLOUDY    62  52  69 SW8       29.83S
COLDWATER*     CLOUDY    61  54  78 CALM      29.86S
HILLSDALE*     CLOUDY    59  50  72 S3        29.87S
HOLLAND        CLOUDY    63  54  72 S8        29.83F
GRAND RAPIDS   CLOUDY    61  54  77 SW9       29.83F
KALAMAZOO      CLOUDY    61  51  70 S7        29.85F
STURGIS*       CLOUDY    60  54  79 S7        29.86S
THREE RIVERS*  CLOUDY    61  53  75 W6        29.86S

$$
OHZ001>008-015>018-024>025-231400-
NORTHWEST OHIO

CITY           SKY/WX    TMP DP  RH WIND       PRES   REMARKS
WAUSEON*       FAIR      63  52  67 SW9       29.89S
DEFIANCE       MOSUNNY   60  48  64 CALM      29.88F
FINDLAY        CLOUDY    60  50  69 SE5       29.89S
TOLEDO EXPRESS CLOUDY    61  50  67 SW6       29.88F
TOLEDO METCALF PTSUNNY   62  50  64 SW5       29.90S
LIMA           CLOUDY    59  52  77 SE8       29.89S

$$
AND FOR LAKE MICHIGAN COASTAL AND OPEN LAKE BUOY OBSERVATIONS

STATION/POSITION TEMP    WIND        PRES    VSBY  WAVE
                 AIR SEA DIR/SP/G                  HT/PER
                 (F)     (DEG/KT/KT) (MB)    (MI)  (FT/S)
CALUMET HARBOR    61     220/  6/ 12 1009.5F
MICHIGAN CITY     60     170/  8/  9   N/A
BURNS HARBOR      61     190/  6/ 11 1010.5F
SOUTH LAKE BUOY   48 45  160/  6/  6 1009.7          1/ 4
4 MI NW BRIDGMAN  58 55  210/  8/ 10 1010.4          1/ 3
MICHIGAN CITY     56 53  180/  4/  6   N/A           1/ 2

$$
&&



USA.gov is the U.S. government's official web portal to all federal, state and local government web resources and services.